Location: Spring Creek
(38.2870°N, 100.2160°W)
Time: 02:08:11
(UTC+00:00)

ATLAS CENTAUR R/B - Pass Details

Date: 08 May 2021
Orbit: 472 x 671 km, 64.6° (Epoch: 13 June)

Event Time Altitude Azimuth Distance (km) Brightness Sun altitude
Exits shadow 07:31:31 13° 30° (NNE) 1,471 4.2 -33.1°
Drops below altitude 10° 07:32:02 10° 30° (NNE) 1,678 4.6 -33.1°
Sets 07:34:13 0° 31° (NNE) 2,586 5.8 -33.0°
